• Processing (Info)

  • MPEC 2007-Y27 : 2007 MB24

    The following Minor Planet Electronic Circular may be linked-to from your own Web pages, but must not otherwise be redistributed electronically.

    A form allowing access to any MPEC is at the bottom of this page.


    Read MPEC 2007-Y26 Read MPEC 2007-Y28


    M.P.E.C. 2007-Y27                                Issued 2007 Dec. 18, 21:52 UT
    
         The Minor Planet Electronic Circulars contain information on unusual
             minor planets and routine data on comets.  They are published
       on behalf of Commission 20 of the International Astronomical Union by the
              Minor Planet Center, Smithsonian Astrophysical Observatory,
                              Cambridge, MA 02138, U.S.A.
    
                 Prepared using the Tamkin Foundation Computer Network
    
                                  MPC@CFA.HARVARD.EDU
              URL http://www.cfa.harvard.edu/iau/mpc.html  ISSN 1523-6714
    
                                       2007 MB24
    
                               Revision to MPEC 2007-M43
    
    Additional Observations:
         K07M24B 4 1989 07 01.30417 19 05 30.78 +34 21 17.3                 EY027261
         K07M24B 4 1989 07 01.34236 19 05 08.59 +34 20 49.0                 EY027261
         K07M24B 4 1989 07 06.26736 18 29 15.92 +33 00 41.1                 EY027261
         K07M24B 4 1989 07 06.30903 18 29 01.55 +32 59 54.6                 EY027261
    
    Observer details:
    261 Palomar-DSS.  Measurer A. Lowe.  1.2-m Schmidt.
    
    First and last observations above in comparison with prediction:
    Residuals in seconds of arc (or two decimals in degrees), reference and Delta-T
    890701 261 0.09- 0.02+    890706 261 0.09- 0.01-    MPO126775   -0.00008 day
    
    Orbital elements:
    2007 MB24                                           PHA, Earth MOID = 0.0270 AU
    Epoch 2007 Oct. 27.0 TT = JDT 2454400.5                 MPC
    M  70.47761              (2000.0)            P               Q
    n   0.38361653     Peri.  269.11803     -0.67297153     +0.01238366
    a   1.8758776      Node   271.30308     +0.29430454     -0.91282278
    e   0.7000025      Incl.   47.71064     -0.67859720     -0.40816812
    P   2.57           H   18.2           G   0.15           U   3
    Residuals in seconds of arc
    890701 261  0.4-  0.9-    070704 H45  1.8-  0.3-    070714 A48  1.0-  0.5-
    890701 261  1.3-  1.0-    070704 H45  0.9-  0.0     070714 A48  1.1-  0.5-
    890706 261  0.8+  0.2+    070704 H45  0.9-  0.2-    070714 A48  1.3-  0.1-
    890706 261  0.6+  0.9-    070704 H45  0.8-  0.1-    070714 A48  1.4-  0.5-
    070624 704  0.3+  0.5+    070704 H45  1.0-  0.6-    070714 198  0.1+  0.3+
    070624 704  0.6-  0.5+    070704 H45  0.7-  0.9-    070714 198  0.2+  0.2+
    070624 704  0.0   0.2+    070705 A24  0.8-  0.4+    070714 198  0.2+  0.1+
    070624 473  0.0   0.1-    070705 A24  0.2+  0.3-    070714 198  0.1+  0.1+
    070624 473  0.6-  0.0     070705 A24  0.1+  0.2+    070714 A24  0.2-  0.3+
    070624 473  0.2-  0.1+    070705 130  0.3-  0.5-    070714 A24  0.3-  0.2+
    070624 473  1.1-  0.3+    070705 130  0.3-  0.5-    070714 A24  1.2+  0.8+
    070624 473  0.9-  0.5+    070706 649  0.3+  0.0     070714 A24  0.1-  0.1+
    070624 595  1.0-  0.7+    070706 649  0.1+  0.1+    070714 A24  0.1+  0.5+
    070624 595  0.5-  0.5+    070706 649  0.5-  0.2+    070715 A24  0.2-  0.2+
    070624 595  0.8-  0.7+    070706 649  0.1+  0.4-    070715 A24  0.5-  0.6+
    070624 118  0.4-  0.3-    070706 A17  0.4+  0.2-    070715 A24  0.0   0.4-
    070624 118  0.5+  0.3+    070706 A17  0.3+  0.1-    070715 H45  0.1+  0.3-
    070624 118  0.2-  0.1+    070706 A17  0.1+  0.2-    070715 240  0.1+  0.3+
    070624 A24  0.1-  0.5+    070706 J95  0.2-  0.3-    070715 240  1.1+  0.4+
    070624 A24  0.1+  0.7+    070706 J95  0.1+  0.2-    070715 240  0.3+  0.5-
    070624 A24  0.1+  0.4+    070706 J95  0.0   0.0     070717 H45  0.3-  0.5-
    070624 A24  0.2+  0.6+    070706 J95  0.1+  0.1-    070717 H45  0.1+  0.1-
    070624 A24  0.2+  0.6+    070707 170  0.4-  0.3+    070717 H45  0.4+  0.1+
    070624 A24  0.2-  0.6+    070707 170  0.1-  0.2+    070717 H45  0.3+  0.2-
    070624 A24  0.2-  0.5+    070707 170  0.1-  0.2+    070717 H45  0.3+  0.1-
    070624 A24  0.0   0.3+    070707 157  0.4-  0.4-    070717 A24  0.0   0.1-
    070624 A24  0.0   0.1+    070707 157  0.2-  0.3+    070717 A24  0.4+  0.6+
    070624 A24  0.2+  0.4+    070707 157  0.2-  0.4+    070718 A24  0.1-  0.5+
    070624 A24  0.4+  0.4+    070707 157  0.4+  0.1+    070718 A24  0.3+  0.5+
    070624 A24  0.7+  0.8+    070708 B09  1.9+  1.1-    070718 A20  0.8-  1.5-
    070624 A24  0.1+  0.3+    070708 B09  1.5+  0.7+    070718 A24  0.2-  0.9+
    070625 932  0.1-  0.2+    070708 A24  0.1-  0.0     070718 A24  0.0   0.1-
    070625 932  0.2-  0.1-    070708 A24  0.2+  0.4+    070718 A20  0.3+  0.5+
    070625 932  0.2-  0.2-    070708 A24  0.0   0.1-    070718 A24  0.1-  0.4+
    070625 854  0.1+  0.4+    070708 A24  0.1-  0.3-    070718 A24  0.1+  0.3+
    070625 854  0.1+  0.2-    070708 A24  0.4-  0.6-    070718 A20  2.1+  1.0+
    070625 854  0.2-  0.4+    070708 A24  0.2+  0.9-    070718 A24  0.4-  0.5+
    070626 932  0.3-  0.1-    070708 649  0.5+  0.0     070718 A24  0.2+  0.3+
    070626 932  0.6-  0.4-    070708 649  0.1+  0.0     070718 A24  0.1-  0.4+
    070626 932  0.1-  0.2+    070708 649  0.1+  0.2-    070718 A24  0.0   0.3+
    070626 673  0.2-  0.2+    070708 649  0.1+  0.1+    070719 A24  0.6+  0.1-
    070626 673  0.2-  0.2-    070708 H45  0.0   0.3-    070719 A24  0.0   0.8+
    070626 673  0.2-  0.3+    070708 H45  0.0   0.1-    070719 A24  0.1-  0.5+
    070626 673  0.0   0.4+    070708 H45  0.1+  0.2-    070719 A24  0.2+  0.5+
    070626 704  0.1-  0.3-    070708 H45  0.1-  0.1-    070719 A24  0.0   0.4+
    070626 673 (3.7+  0.1+)   070708 H45  0.3-  0.7-    070719 A24  0.4+  0.4+
    070626 704  1.7-  0.1+    070708 A78  0.1-  0.3-    070719 A24  0.3-  0.3+
    070626 704  0.5-  0.0     070708 A78  0.1+  0.1-    070719 A24  0.0   0.2+
    070626 673 (7.7+  1.9-)   070708 A78  0.0   0.1-    070719 A24  0.0   0.0
    070626 673 (4.1+  1.0-)   070708 160  0.0   0.0     070720 A24  0.3-  0.1+
    070626 673(10.3+  2.4-)   070708 160  0.3+  0.0     070722 A20  0.8-  0.3-
    070626 704  0.7-  0.3+    070708 160  0.1-  0.5+    070722 A20  0.2+  0.1-
    070626 704  0.1-  0.7-    070708 595  0.3+  0.3+    070722 A20  0.3-  0.3-
    070626 704  0.5-  0.8+    070708 595  0.0   0.4+    070724 A24  1.5+  0.5+
    070626 704  0.1-  0.7-    070712 H45  0.7+  0.2+    070724 A24  0.1-  0.1+
    070626 H06  0.0   0.7+    070712 H45  0.3+  0.1+    070724 A24  1.0+  0.4+
    070626 H06  0.4-  1.0+    070712 H45  0.1+  0.2-    070724 A24  0.1-  0.2+
    070626 H06  0.5-  1.1+    070712 H45  0.2-  0.5-    070724 A24  0.5+  0.4+
    070626 235  0.8-  0.0     070712 H45  0.3+  0.0     070724 A24  0.8-  0.3+
    070626 A55  0.8-  0.3-    070712 H45  0.3+  0.1-    070725 A24  0.1-  0.1-
    070626 A55  0.1+  0.0     070712 151  0.1+  0.2-    070725 A24  0.4-  0.2+
    070626 A55  0.6-  0.3-    070712 151  0.2-  0.2+    070725 A24  0.2+  0.1+
    070626 A55  0.2+  0.4+    070712 473  0.2+  0.3-    070725 A24  0.3-  0.4+
    070627 291  1.8-  0.8+    070712 473  0.3+  0.2-    070725 A24  0.6+  0.5-
    070627 291  0.2-  0.2+    070712 A24  0.4-  0.3+    070725 A24  0.7+  0.2+
    070627 J95  0.2-  0.3-    070712 A24  0.1-  0.1-    070725 A24  0.6+  0.8+
    070627 J95  0.1-  0.2-    070712 A24  0.2-  0.1-    070725 A24  1.2-  1.2+
    070627 J95  0.3-  0.1-    070712 A24  0.2-  0.1-    070726 A24  0.7+  0.3+
    070629 J95  0.1-  0.2-    070712 A24  0.2-  0.1-    070726 A24  0.0   0.1-
    070629 J95  0.2+  0.5-    070712 A24  0.3-  0.2-    070726 A24  0.2-  0.1+
    070629 J95  0.0   0.1-    070712 A24  0.0   0.0     070726 A24  0.1-  0.3+
    070629 J95  0.0   0.6-    070712 A24  0.1+  0.0     070726 A24  0.3-  0.2+
    070702 J95  0.1+  0.3-    070713 A24  0.6-  0.1-    070726 A24  0.2+  0.2+
    070702 J95  0.1+  0.3-    070713 A24  0.1+  0.3+    070803 H55  0.2+  0.0
    070702 J95  0.1-  0.2-    070713 A24  0.1-  0.1+    070803 H55  0.2+  0.1-
    070702 H55  0.3+  0.1-    070713 151  0.1-  0.1-    070803 H55  0.2+  0.1+
    070702 H55  0.1+  0.1+    070713 151  0.0   0.0     070803 J95  0.1-  0.4-
    070702 H55  0.6+  0.0     070713 151  1.0-  1.2+    070803 J95  0.0   0.0
    070702 H55  0.2+  0.1-    070713 A24  0.6-  0.3+    070803 J95  0.0   0.3-
    070702 H55  0.2+  0.2-    070713 A24  0.1+  0.8+    070811 H55  0.2-  0.0
    070702 H55  0.0   0.1+    070713 A24  0.3-  0.4+    070811 H55  0.0   0.0
    070702 213  0.1+  0.1+    070713 A24  0.6-  0.2+    070811 H55  0.2-  0.1-
    070702 213  0.2+  0.3+    070713 A24  0.2-  0.1+    070822 H55  0.1-  0.7-
    070702 213  0.1+  0.5+    070713 A24  0.0   0.3+    070822 H55  0.8+  0.6+
    070702 213  0.1-  0.7+    070713 A24  0.2-  0.4+    070822 H55  0.4-  0.3+
    070703 649  0.4+  0.1-    070713 A24  0.1+  0.2+    070901 H55  0.1-  0.0
    070703 649  0.2+  0.2-    070714 A24  0.2-  0.2+    070901 H55  0.1+  0.0
    070703 649  0.3+  0.1-    070714 A24  0.2+  0.0     070901 H55  0.1-  0.6+
    070703 649  0.5+  0.0     070714 A24  0.2+  0.2+    070912 H55  0.6-  0.7-
    070703 649  0.1-  0.4-    070714 A24  0.3-  0.4+    070912 H55  0.4-  0.5-
    
    Ephemeris:
    2007 MB24                a,e,i = 1.88, 0.70, 48                  q = 0.5628
    Date    TT    R. A. (2000) Decl.     Delta      r     Elong.  Phase     V
    2007 12 16    19 58.12   +13 53.7    3.089    2.595    51.6    17.3    23.6
    2007 12 26    20 12.79   +14 31.7    3.211    2.647    47.4    15.9    23.7
    
    Sonia Keys                   (C) Copyright 2007 MPC           M.P.E.C. 2007-Y27
    

    Read MPEC 2007-Y26 Read MPEC 2007-Y28


    MPEC number:

    Enter an MPEC number in one of the following forms:

    • 1997-B01 (the full form)
    • J97B01 (the packed version of the full form)
    • B01 (the abbreviated form)